Home > Weather > Buxtehude > Past weeks

Flag for Germany Past Weather in Buxtehude, Lower Saxony, Germany — Yesterday and Last 2 Weeks

Now
72 °F

Scattered clouds.


Feels Like: 75 °F
Forecast: 60 / 72 °F
Wind: 5 mph from South

Location: Hamburg-Finkenwerder

Current Time: Jul 28, 2016 at 10:24:33 PM

Latest Report: Jul 28, 2016 at 8:20 PM


Visibility: N/A

Pressure: 29.89 "Hg

Humidity: 65%

Dew Point: 59 °F

Location of BuxtehudeLocation

Past Weather in Buxtehude — Graph

°F

Buxtehude Temperature Yesterday

Maximum temperature yesterday: 73 °F (at 2:20 PM)
Minimum temperature yesterday: 63 °F (at 5:50 AM)
Average temperature yesterday: 69 °F

High & Low Weather Summary for the Past Weeks

 TemperatureHumidityPressure
High86 °F (Jul 21, 4:20 PM)100% (Jul 14, 5:50 AM)30.21 "Hg (Jul 14, 5:50 AM)
Low52 °F (Jul 14, 6:20 AM)45% (Jul 20, 3:20 PM)29.89 "Hg (Jul 21, 5:50 AM)
Average70 °F77%30.04 "Hg
* Reported Jul 14 5:50 AM — Jul 28 8:20 PM, Buxtehude, Weather by CustomWeather, © 2016

Note: Actual official high and low records may vary slightly from our data, if they occured in-between our weather recording intervals... More about our weather records

Advertising

Buxtehude Weather History for the Previous 24 Hours

Scroll right to see more
 ConditionsComfort  
Time TempWeatherWind HumidityBarometerVisibility
8:20 PM
Thu, Jul 28
72 °FScattered clouds.5 mph65%29.89 "HgN/A
7:50 PM73 °FPartly sunny.5 mph53%29.89 "HgN/A
7:20 PM73 °FSunny.2 mph53%29.89 "Hg10 mi
6:50 PM73 °FSunny.2 mph50%29.89 "Hg10 mi
6:20 PM73 °FSunny.5 mph53%29.92 "Hg10 mi
5:50 PM73 °FPassing clouds.6 mph50%29.92 "HgN/A
5:20 PM75 °FScattered clouds.6 mph50%29.92 "HgN/A
4:50 PM75 °FPassing clouds.6 mph50%29.92 "HgN/A
4:20 PM75 °FSunny.3 mph50%29.95 "Hg10 mi
3:50 PM75 °FSunny.3 mph47%29.95 "Hg10 mi
3:20 PM73 °FScattered clouds.5 mph50%29.95 "HgN/A
2:50 PM75 °FScattered clouds.3 mph54%29.95 "HgN/A
2:20 PM73 °FScattered clouds.6 mph50%29.98 "HgN/A
1:50 PM72 °FScattered clouds.5 mph57%29.98 "HgN/A
1:20 PM72 °FScattered clouds.6 mph57%29.98 "HgN/A
12:50 PM72 °FScattered clouds.6 mph57%29.98 "HgN/A
12:20 PM70 °FScattered clouds.5 mph60%29.98 "HgN/A
11:50 AM70 °FPassing clouds.2 mph60%29.98 "HgN/A
11:20 AM68 °FScattered clouds.3 mph64%29.98 "HgN/A
10:50 AM68 °FScattered clouds.6 mph69%29.98 "HgN/A
10:20 AM66 °FPassing clouds.6 mph73%29.98 "HgN/A
9:50 AM66 °FScattered clouds.8 mph78%29.98 "HgN/A
9:20 AM66 °FScattered clouds.8 mph83%29.98 "HgN/A
8:50 AM66 °FScattered clouds.7 mph83%29.98 "HgN/A
8:20 AM64 °FPassing clouds.7 mph88%29.98 "HgN/A
7:50 AM63 °FScattered clouds.7 mph100%29.98 "HgN/A
7:20 AM63 °FScattered clouds.7 mph100%29.98 "HgN/A
6:50 AM63 °FScattered clouds.6 mph100%29.98 "HgN/A
6:20 AM63 °FPassing clouds.6 mph100%29.95 "HgN/A
5:50 AM63 °FPassing clouds.6 mph94%29.95 "HgN/A
Weather by CustomWeather, © 2016

See weather overviewHow to use our weather pages